This demonstration page uses our WeatherBlox Daily Observations layout. Learn more.

Hourly Observations for December 14, 2019

Temp ( °F °C ) Dew Point ( °F °C ) Humidity (%) Winds ( mph kmh ) Pressure ( in mb ) Visibility ( mi km ) Precip ( " mm )
12:15 am 00:15 Cloudy 33 0.8 31 -0.4 92 92 N 8 13 30.01 1016 10 16.0934 0 0
12:35 am 00:35 Cloudy 33 0.3 30 -0.9 92 92 N 10 17 30.01 1016 10 16.0934 0 0
12:55 am 00:55 Cloudy 32 0 30 -1.3 91 91 NNE 13 20 30.02 1017 10 16.0934 0 0
1:15 am 01:15 Cloudy 31 -0.6 28 -2 90 90 N 16 26 30.03 1017 10 16.0934 0 0
1:35 am 01:35 Partly Cloudy 29 -1.6 27 -2.7 92 92 N 9 15 30.03 1017 10 16.0934 0 0
1:55 am 01:55 Partly Cloudy 28 -2 27 -3 93 93 N 7 11 30.04 1017 10 16.0934 0 0
2:15 am 02:15 Cloudy 29 -1.8 27 -2.6 94 94 N 5 7 30.04 1017 10 16.0934 0 0
2:35 am 02:35 Cloudy 29 -1.6 28 -2.5 94 94 N 7 11 30.04 1017 10 16.0934 0 0
2:55 am 02:55 Cloudy 29 -1.6 28 -2.4 94 94 N 6 9 30.04 1017 10 16.0934 0 0
3:15 am 03:15 Cloudy 29 -1.4 28 -2.2 94 94 N 7 11 30.04 1017 10 16.0934 0 0
3:35 am 03:35 Cloudy 30 -1 28 -2 93 93 N 8 13 30.03 1017 10 16.0934 0 0
3:55 am 03:55 Cloudy 31 -0.8 29 -1.8 93 93 N 8 13 30.03 1017 10 16.0934 0 0
4:15 am 04:15 Cloudy 31 -0.7 29 -1.9 92 92 NNE 8 13 30.02 1017 10 16.0934 0 0
4:35 am 04:35 Cloudy 30 -1 28 -2.3 91 91 NNE 12 19 30.02 1017 10 16.0934 0 0
4:55 am 04:55 Cloudy 30 -1.3 28 -2.5 92 92 NNE 9 15 30.03 1017 10 16.0934 0 0
5:15 am 05:15 Cloudy 29 -1.5 27 -2.6 92 92 NNE 9 15 30.03 1017 10 16.0934 0 0
5:35 am 05:35 Cloudy 28 -2 27 -3 93 93 NNE 9 15 30.02 1017 10 16.0934 0 0
5:55 am 05:55 Cloudy 28 -2.1 26 -3.1 93 93 NNE 8 13 30.03 1017 10 16.0934 0 0
6:15 am 06:15 Cloudy 28 -2 27 -2.8 94 94 NNE 12 19 30.03 1017 10 16.0934 0 0
6:35 am 06:35 Cloudy 28 -2.4 26 -3.2 94 94 NNE 10 17 30.04 1017 10 16.0934 0 0
6:55 am 06:55 Cloudy 27 -2.6 26 -3.5 94 94 NNE 12 19 30.04 1017 10 16.0934 0 0
7:15 am 07:15 Cloudy 27 -3 26 -3.6 96 96 NNE 13 20 30.04 1017 10 16.0934 0 0
7:35 am 07:35 Cloudy 27 -3 26 -3.5 96 96 NNE 12 19 30.05 1018 10 16.0934 0 0
7:55 am 07:55 Cloudy 26 -3.5 25 -4 96 96 NE 10 17 30.06 1018 10 16.0934 0 0
8:15 am 08:15 Cloudy 25 -3.7 25 -4.1 97 97 NNE 9 15 30.07 1018 10 16.0934 0 0
8:35 am 08:35 Cloudy 25 -4 24 -4.3 98 98 NNE 9 15 30.07 1018 10 16.0934 0 0
8:55 am 08:55 Cloudy 24 -4.2 24 -4.5 98 98 NE 8 13 30.1 1019 10 16.0934 0 0
9:15 am 09:15 Cloudy 25 -4.1 24 -4.5 97 97 NNE 6 9 30.09 1019 10 16.0934 0 0
9:35 am 09:35 Cloudy 24 -4.2 24 -4.7 96 96 NNE 5 7 30.12 1020 10 16.0934 0 0
9:55 am 09:55 Cloudy 24 -4.2 23 -4.8 96 96 NE 6 9 30.12 1020 7 11.26538 0 0
10:15 am 10:15 Cloudy 24 -4.2 23 -4.8 96 96 ENE 5 7 30.12 1020 7 11.26538 0 0
10:35 am 10:35 Cloudy with Mist and Fog 24 -4.5 23 -5 96 96 ENE 7 11 30.11 1020 5 8.0467 0 0
10:55 am 10:55 Cloudy with Mist and Fog 24 -4.6 23 -5.1 96 96 E 8 13 30.11 1020 5 8.0467 0 0
11:15 am 11:15 Cloudy 24 -4.7 22 -5.3 96 96 ENE 8 13 30.11 1020 7 11.26538 0 0
11:35 am 11:35 Cloudy 24 -4.7 22 -5.6 94 94 ENE 9 15 30.1 1019 10 16.0934 0 0
11:55 am 11:55 Cloudy 24 -4.5 22 -5.6 92 92 E 8 13 30.1 1019 10 16.0934 0 0
12:15 pm 12:15 Cloudy 24 -4.4 21 -5.9 89 89 E 8 13 30.08 1019 10 16.0934 0 0
12:35 pm 12:35 Cloudy 25 -4.1 22 -5.8 88 88 E 8 13 30.06 1018 10 16.0934 0 0
12:55 pm 12:55 Cloudy 25 -4 21 -6.2 85 85 ENE 8 13 30.05 1018 10 16.0934 0 0
1:15 pm 13:15 Cloudy 25 -3.7 21 -6 84 84 E 8 13 30.03 1017 10 16.0934 0 0
1:35 pm 13:35 Cloudy 26 -3.6 21 -5.9 84 84 E 7 11 30.03 1017 10 16.0934 0 0
1:55 pm 13:55 Cloudy 26 -3.2 22 -5.5 84 84 E 10 17 30.03 1017 10 16.0934 0 0
2:15 pm 14:15 Mostly Cloudy 26 -3.1 21 -6 81 81 E 12 19 30 1016 10 16.0934 0 0
2:35 pm 14:35 Mostly Cloudy 26 -3.3 20 -6.5 79 79 E 10 17 30.02 1016 10 16.0934 0 0
2:55 pm 14:55 Cloudy 26 -3.5 20 -6.9 78 78 E 12 19 30.02 1017 10 16.0934 0 0
3:15 pm 15:15 Cloudy 26 -3.5 20 -6.9 78 78 E 10 17 30.02 1017 10 16.0934 0 0
3:35 pm 15:35 Cloudy 26 -3.1 20 -6.5 78 78 ESE 9 15 30.01 1016 10 16.0934 0 0
3:55 pm 15:55 Cloudy 26 -3.3 20 -6.8 77 77 ESE 8 13 30.02 1016 10 16.0934 0 0
4:15 pm 16:15 Cloudy 26 -3.4 20 -6.8 78 78 E 9 15 30.02 1016 10 16.0934 0 0
4:35 pm 16:35 Cloudy 26 -3.5 20 -6.9 78 78 ESE 9 15 30.03 1017 10 16.0934 0 0
4:55 pm 16:55 Cloudy 26 -3.5 19 -7 77 77 E 8 13 30.03 1017 10 16.0934 0 0
5:15 pm 17:15 Cloudy 26 -3.5 20 -6.7 79 79 ESE 8 13 30.03 1017 10 16.0934 0 0
5:35 pm 17:35 Cloudy 26 -3.5 20 -6.8 78 78 ESE 7 11 30.04 1017 10 16.0934 0 0
5:55 pm 17:55 Cloudy 26 -3.5 20 -6.8 78 78 ESE 6 9 30.04 1017 10 16.0934 0 0
6:15 pm 18:15 Cloudy with Light Snow 26 -3.5 20 -6.4 81 81 E 8 13 30.04 1017 7 11.26538 0 0
6:35 pm 18:35 Cloudy with Light Snow 25 -3.9 21 -6 86 86 E 9 15 30.04 1017 2.5 4.02335 0 0
6:55 pm 18:55 Cloudy with Light Snow 24 -4.2 22 -5.5 91 91 E 8 13 30.06 1018 2.5 4.02335 0 0
7:15 pm 19:15 Cloudy with Light Snow 24 -4.5 22 -5.5 93 93 E 8 13 30.06 1018 2 3.21868 0 0
7:35 pm 19:35 Cloudy with Light Snow 24 -4.6 22 -5.5 94 94 E 10 17 30.05 1018 3 4.82802 0 0
7:55 pm 19:55 Cloudy with Light Snow 23 -4.8 22 -5.6 94 94 E 9 15 30.05 1018 2 3.21868 0 0
8:15 pm 20:15 Cloudy with Light Snow 23 -5 22 -5.7 95 95 E 12 19 30.05 1018 2.5 4.02335 0 0
8:35 pm 20:35 Cloudy with Light Snow 23 -5 22 -5.7 95 95 E 9 15 30.05 1018 3 4.82802 0 0
8:55 pm 20:55 Cloudy with Light Snow 23 -5 22 -5.7 95 95 ESE 9 15 30.05 1018 3 4.82802 0 0
9:15 pm 21:15 Cloudy with Light Snow 23 -5.1 22 -5.7 96 96 ESE 10 17 30.06 1018 2 3.21868 0 0
9:35 pm 21:35 Cloudy with Light Snow 23 -5.2 22 -5.7 96 96 ESE 10 17 30.06 1018 2 3.21868 0 0
9:55 pm 21:55 Cloudy with Light Snow 23 -5.2 22 -5.7 96 96 SE 9 15 30.06 1018 4 6.43736 0 0
10:15 pm 22:15 Cloudy with Light Snow 22 -5.3 22 -5.8 96 96 ESE 8 13 30.06 1018 3 4.82802 0 0
10:35 pm 22:35 Cloudy with Light Snow 23 -5.2 22 -5.8 96 96 SE 8 13 30.06 1018 4 6.43736 0 0
10:55 pm 22:55 Cloudy with Light Snow 23 -5.2 22 -5.8 96 96 ESE 8 13 30.06 1018 7 11.26538 0 0
11:15 pm 23:15 Cloudy 22 -5.3 21 -6 95 95 ESE 9 15 30.06 1018 10 16.0934 0 0
11:35 pm 23:35 Cloudy 22 -5.5 21 -6.1 96 96 ESE 10 17 30.05 1018 10 16.0934 0 0
11:55 pm 23:55 Cloudy 22 -5.5 21 -6.2 95 95 E 10 17 30.05 1018 7 11.26538 0 0

Powered by AerisWeather